McCutcheon Field, NC

3:16 PM EST on January 24, 2017 (GMT -0500)
New River Marine Corps Air Station

Weather History for KNCA - January, 2013

Change the Weather History Date:

Friday, January 25, 2013

  Actual Average Record
Temperature  
Mean Temperature 29 °F -  
Max Temperature 36 °F 52 °F 66 °F (2002)
Min Temperature 22 °F 32 °F 13 °F (2003)
Degree Days  
Heating Degree Days 36    
Moisture  
Dew Point 20 °F    
Average Humidity 67    
Maximum Humidity 93    
Minimum Humidity 43    
Precipitation  
Precipitation 0.00 in - - ()
Sea Level Pressure  
Sea Level Pressure 30.29 in    
Wind  
Wind Speed 5 mph (North)    
Max Wind Speed 13 mph    
Max Gust Speed -    
Visibility 7 miles    
Events      
Averages and records for this station are not official NWS values.
T = Trace of Precipitation, MM = Missing Value Source: NWS Daily Summary

Daily Weather History Graph

Daily Weather History Graph

Search for Another Location

Airport or City:

Trip Planner

Search our weather history database for the weather conditions in past years. The results will help you decide how hot, cold, wet, or windy it might be!

Date:

Astronomy

Jan. 25, 2013 Rise Set
Actual Time 7:12 AM EST 5:32 PM EST
Civil Twilight 6:45 AM EST 5:59 PM EST
Nautical Twilight 6:15 AM EST 6:29 PM EST
Astronomical Twilight 5:45 AM EST 6:59 PM EST
Moon 4:27 PM EST (1/25) 5:50 AM EST (1/25)
Length of Visible Light 11h 13m
Length of Day
10h 19m
Waxing Gibbous, 98% of the Moon is Illuminated
Jan 25
Waxing Gibbous
Jan 26
Full
Feb 3
Last Quarter
Feb 10
New
Feb 17
First Quarter

Hourly Weather History & Observations

Time (EST) Temp. Windchill Dew Point Humidity Pressure Visibility Wind Dir Wind Speed Gust Speed Precip Events Conditions
12:56 AM 27.5 °F 22.2 °F 9.3 °F 46% 30.49 in 7.0 mi North 4.6 mph - N/A   Partly Cloudy
1:56 AM 27.3 °F 19.9 °F 9.3 °F 47% 30.50 in 7.0 mi North 6.9 mph - N/A   Clear
2:56 AM 25.5 °F 18.7 °F 9.7 °F 51% 30.50 in 7.0 mi North 5.8 mph - N/A   Clear
3:56 AM 23.2 °F 15.0 °F 11.1 °F 60% 30.49 in 7.0 mi NNE 6.9 mph - N/A   Clear
4:56 AM 23.7 °F 14.7 °F 10.8 °F 58% 30.49 in - North 8.1 mph - N/A   Clear
5:07 AM - - - N/A% - - North - - N/A   Unknown
5:56 AM 22.6 °F - 11.8 °F 63% 30.49 in 7.0 mi Calm Calm - N/A   Clear
6:56 AM 24.3 °F - 12.6 °F 61% 30.48 in 10.0 mi Calm Calm - N/A   Mostly Cloudy
7:56 AM 25.9 °F 19.2 °F 11.7 °F 55% 30.47 in 10.0 mi North 5.8 mph - N/A   Mostly Cloudy
8:56 AM 27.0 °F 19.5 °F 8.1 °F 45% 30.46 in 10.0 mi NE 6.9 mph - N/A   Mostly Cloudy
9:56 AM 35.4 °F 31.5 °F 15.1 °F 43% 30.44 in 10.0 mi NE 4.6 mph - 0.00 in   Mostly Cloudy
10:56 AM 34.7 °F 29.6 °F 17.1 °F 49% 30.42 in 10.0 mi East 5.8 mph - N/A   Mostly Cloudy
11:56 AM 35.6 °F - 18.0 °F 49% 30.36 in 10.0 mi Calm Calm - N/A   Overcast
12:56 PM 34.0 °F - 16.0 °F 48% 30.31 in 10.0 mi Calm Calm - N/A   Overcast
1:56 PM 35.1 °F - 19.9 °F 54% 30.22 in 10.0 mi Calm Calm - 0.00 in   Overcast
2:56 PM 36.0 °F - 21.0 °F 55% 30.20 in 10.0 mi Calm Calm - N/A   Overcast
3:56 PM 36.0 °F - 24.1 °F 62% 30.17 in 10.0 mi Calm Calm - N/A   Overcast
4:54 PM 30.2 °F 22.6 °F 24.8 °F 80% 30.17 in 1.8 mi North 8.1 mph - N/A   Overcast
5:27 PM 30.2 °F 25.4 °F 26.6 °F 86% 30.16 in 4.0 mi North 4.6 mph - N/A   Overcast
5:49 PM 30.2 °F 26.7 °F 26.6 °F 86% 30.14 in 4.0 mi North 3.5 mph - N/A   Overcast
5:56 PM 30.9 °F 27.5 °F 27.0 °F 85% 30.14 in 4.0 mi North 3.5 mph - N/A   Overcast
7:25 PM 30.2 °F 23.4 °F 28.4 °F 93% 30.12 in 2.5 mi WNW 6.9 mph - N/A   Overcast
7:53 PM 32.0 °F 25.6 °F 28.4 °F 87% 30.12 in 4.0 mi NW 6.9 mph - N/A   Overcast
7:56 PM 32.0 °F 26.4 °F 28.9 °F 88% 30.12 in 4.0 mi NW 5.8 mph - N/A   Overcast
8:56 PM 32.4 °F 23.5 °F 28.9 °F 87% 30.12 in 7.0 mi NNW 11.5 mph - N/A   Overcast
9:03 PM 32.0 °F 22.5 °F 28.4 °F 87% 30.12 in 4.0 mi NNW 12.7 mph - N/A   Overcast
9:56 PM 30.9 °F 25.2 °F 28.0 °F 89% 30.12 in 3.0 mi NNW 5.8 mph - N/A   Overcast
10:56 PM 30.9 °F 24.3 °F 28.0 °F 89% 30.15 in 8.0 mi WNW 6.9 mph - N/A   Overcast
11:56 PM 32.0 °F 26.4 °F 28.0 °F 85% 30.14 in 7.0 mi NW 5.8 mph - N/A   Mostly Cloudy